KB6LA Weather Reports


time (UTC)temp
F
wind
direction
speed
knots
gust
knots
rain 1hr
in
rain 24hr
in
rain mn
in
humidity
%
barometer
mb
20260504020420 60 250 5.2 9.6 0.00 0.00 0.00 74 1012.4
20260504015912 60 254 3.5 9.6 0.00 0.00 0.00 75 1012.4
20260504015405 60 211 7.8 9.6 0.00 0.00 0.00 74 1012.4
20260504014858 59 181 5.2 9.6 0.00 0.00 0.00 75 1012.4
20260504014351 60 243 5.2 13.9 0.00 0.00 0.00 75 1012.4
20260504013844 59 203 7.0 13.9 0.00 0.00 0.00 76 1012.1
20260504013336 59 216 9.6 13.0 0.00 0.00 0.00 76 1012.4
20260504012829 60 309 5.2 13.0 0.00 0.00 0.00 75 1012.1
20260504012321 60 223 8.7 13.0 0.00 0.00 0.00 75 1012.4
20260504011814 60 254 7.0 12.2 0.00 0.00 0.00 74 1012.4
20260504011307 60 235 10.4 12.2 0.00 0.00 0.00 72 1012.4
20260504010800 60 235 6.1 11.3 0.00 0.00 0.00 73 1012.1
20260504010253 60 253 7.8 11.3 0.00 0.00 0.00 73 1012.1
20260504005238 60 244 7.8 11.3 0.00 0.00 0.00 72 1012.1
20260504004731 61 246 7.8 11.3 0.00 0.00 0.00 70 1012.1
20260504004224 61 280 3.5 12.2 0.00 0.00 0.00 71 1012.1
20260504003717 61 244 7.8 12.2 0.00 0.00 0.00 70 1012.1
20260504003209 61 231 5.2 13.9 0.00 0.00 0.00 70 1012.1
20260504002702 61 241 6.1 13.9 0.00 0.00 0.00 69 1011.8
20260504002155 61 245 5.2 9.6 0.00 0.00 0.00 67 1012.1
20260504001648 61 249 5.2 11.3 0.00 0.00 0.00 68 1012.1
20260504000633 61 264 7.8 11.3 0.00 0.00 0.00 69 1012.1
20260504000125 61 264 5.2 9.6 0.00 0.00 0.00 71 1011.8
20260503235618 60 215 6.1 13.9 0.00 0.00 0.00 72 1011.8
20260503235111 60 231 10.4 13.9 0.00 0.00 0.00 72 1011.8
20260503234604 61 237 7.8 13.9 0.00 0.00 0.00 71 1012.1
20260503234057 61 236 7.8 11.3 0.00 0.00 0.00 73 1011.8
20260503233549 61 262 6.1 12.2 0.00 0.00 0.00 74 1011.8
20260503233041 61 218 8.7 13.9 0.00 0.00 0.00 73 1011.8
20260503232535 61 267 8.7 13.9 0.00 0.00 0.00 73 1012.1
20260503231519 62 283 6.1 9.6 0.00 0.00 0.00 70 1012.1
20260503231012 62 270 7.8 12.2 0.00 0.00 0.00 71 1012.1
20260503230505 62 273 5.2 12.2 0.00 0.00 0.00 70 1012.1
20260503225959 62 258 6.1 13.9 0.00 0.00 0.00 69 1012.4
20260503225450 63 232 11.3 13.9 0.00 0.00 0.00 67 1012.1
20260503224943 63 222 5.2 11.3 0.00 0.00 0.00 67 1012.1
20260503223929 63 229 7.8 12.2 0.00 0.00 0.00 66 1012.4
20260503223422 63 224 6.1 12.2 0.00 0.00 0.00 65 1012.4
20260503222914 63 236 9.6 12.2 0.00 0.00 0.00 64 1012.4
20260503222407 63 235 5.2 12.2 0.00 0.00 0.00 66 1012.4
20260503221900 63 236 3.5 11.3 0.00 0.00 0.00 68 1012.4
20260503221353 63 249 9.6 13.0 0.00 0.00 0.00 66 1012.8
20260503220846 62 230 4.3 13.0 0.00 0.00 0.00 67 1012.8
20260503220338 62 232 4.3 12.2 0.00 0.00 0.00 65 1012.8
20260503215830 62 238 7.8 13.0 0.00 0.00 0.00 66 1012.8
20260503215323 63 207 7.0 13.0 0.00 0.00 0.00 66 1012.8
20260503214309 63 213 9.6 13.0 0.00 0.00 0.00 64 1012.8
20260503213801 64 201 10.4 13.0 0.00 0.00 0.00 61 1013.1
20260503213254 63 256 3.5 13.0 0.00 0.00 0.00 63 1012.8
20260503212747 63 266 6.1 13.0 0.00 0.00 0.00 61 1012.8
20260503212240 63 214 8.7 11.3 0.00 0.00 0.00 63 1012.8
20260503211225 63 287 7.8 13.9 0.00 0.00 0.00 61 1012.8
20260503210718 63 229 10.4 13.0 0.00 0.00 0.00 61 1013.1
20260503210210 64 216 7.8 13.0 0.00 0.00 0.00 64 1013.1
20260503205703 62 64 3.5 13.9 0.00 0.00 0.00 64 1012.8
20260503204649 62 245 7.8 13.0 0.00 0.00 0.00 64 1012.8
20260503204141 63 252 6.1 13.0 0.00 0.00 0.00 61 1013.1
20260503203127 64 252 7.8 11.3 0.00 0.00 0.00 64 1012.8
20260503202619 63 286 5.2 11.3 0.00 0.00 0.00 63 1012.8
20260503202112 64 250 9.6 11.3 0.00 0.00 0.00 62 1013.1
20260503201604 63 232 7.0 12.2 0.00 0.00 0.00 63 1013.1
20260503201057 64 190 4.3 12.2 0.00 0.00 0.00 62 1013.1
20260503200043 63 233 5.2 12.2 0.00 0.00 0.00 62 1013.1
20260503195535 64 261 4.3 9.6 0.00 0.00 0.00 60 1013.1
20260503193506 63 215 5.2 8.7 0.00 0.00 0.00 63 1013.4
20260503192959 63 187 5.2 11.3 0.00 0.00 0.00 61 1013.4
20260503192452 64 253 7.0 12.2 0.00 0.00 0.00 63 1013.1
20260503191438 64 267 4.3 12.2 0.00 0.00 0.00 62 1013.4
20260503190930 64 206 4.3 11.3 0.00 0.00 0.00 61 1013.4
20260503190423 64 233 5.2 11.3 0.00 0.00 0.00 61 1013.4
20260503185408 63 195 3.5 12.2 0.00 0.00 0.00 63 1013.4
20260503184902 63 230 10.4 12.2 0.00 0.00 0.00 62 1013.4
20260503184354 63 216 3.5 9.6 0.00 0.00 0.00 63 1013.4
20260503183847 64 243 3.5 8.7 0.00 0.00 0.00 62 1013.4
20260503183340 64 204 2.6 7.0 0.00 0.00 0.00 61 1013.4
20260503182833 63 181 4.3 7.0 0.00 0.00 0.00 63 1013.4
20260503182325 63 267 0.0 7.8 0.00 0.00 0.00 65 1013.4
20260503181818 63 264 2.6 7.8 0.00 0.00 0.00 63 1013.4
20260503181310 62 263 0.9 7.8 0.00 0.00 0.00 66 1013.4
20260503180803 62 249 4.3 7.8 0.00 0.00 0.00 66 1013.4
20260503180256 62 311 3.5 7.0 0.00 0.00 0.00 67 1013.4
20260503175241 61 292 3.5 8.7 0.00 0.00 0.00 69 1013.8
20260503174734 61 241 6.1 8.7 0.00 0.00 0.00 70 1013.8
20260503174226 61 250 6.1 8.7 0.00 0.00 0.00 70 1013.8
20260503173719 61 226 5.2 8.7 0.00 0.00 0.00 71 1013.8
20260503172705 60 219 6.1 8.7 0.00 0.00 0.00 73 1013.8
20260503172158 60 253 7.0 8.7 0.00 0.00 0.00 73 1013.8
20260503170636 60 240 4.3 7.8 0.00 0.00 0.00 74 1013.4
20260503170129 60 261 5.2 7.8 0.00 0.00 0.00 74 1013.4
20260503150849 59 226 3.5 6.1 0.00 0.00 0.00 78 1012.8
20260503150341 59 275 1.7 6.1 0.00 0.00 0.00 79 1012.8
20260503140214 58 232 0.9 1.7 0.00 0.00 0.00 83 1011.8
20260503131101 58 323 0.0 1.7 0.00 0.00 0.00 86 1011.4
20260503130554 58 307 0.9 2.6 0.00 0.00 0.00 86 1011.8
20260503110807 59 267 0.0 0.9 0.00 0.00 0.00 80 1011.8
20260503110300 59 267 0.0 1.7 0.00 0.00 0.00 80 1011.8
20260503100133 59 279 0.0 2.6 0.00 0.00 0.00 83 1011.8
20260503081400 59 224 1.7 3.5 0.00 0.00 0.00 85 1012.4
20260503080853 58 239 2.6 3.5 0.00 0.00 0.00 86 1012.1
20260503072756 58 229 4.3 6.1 0.00 0.00 0.00 89 1012.1
20260503072248 58 239 3.5 5.2 0.00 0.00 0.00 90 1012.1
20260503071741 58 187 3.5 5.2 0.00 0.00 0.00 90 1012.1
20260503071234 58 213 2.6 5.2 0.00 0.00 0.00 90 1011.8
20260503070726 58 217 2.6 3.5 0.00 0.00 0.00 90 1011.8
20260503070219 58 202 1.7 5.2 0.00 0.00 0.00 90 1011.8
20260503055037 58 241 4.3 6.1 0.00 0.00 0.00 89 1011.8
20260503054530 58 200 1.7 7.0 0.00 0.00 0.00 89 1011.8
20260503054022 58 226 3.5 7.0 0.00 0.00 0.00 89 1011.8
20260503053515 59 256 1.7 7.0 0.00 0.00 0.00 89 1012.1
20260503053009 59 249 2.6 7.8 0.00 0.00 0.00 89 1012.1
20260503052501 59 205 4.3 7.8 0.00 0.00 0.00 90 1012.1
20260503051954 58 234 3.5 7.8 0.00 0.00 0.00 90 1012.1
20260503050939 59 209 3.5 6.1 0.00 0.00 0.00 90 1012.1
20260503050431 59 227 3.5 6.1 0.00 0.00 0.00 90 1012.1
20260503045417 59 245 3.5 7.8 0.00 0.00 0.00 91 1011.8
20260503044911 59 226 2.6 7.8 0.00 0.00 0.00 91 1011.8
20260503043855 59 214 4.3 7.0 0.00 0.00 0.00 90 1011.8
20260503043348 59 180 2.6 6.1 0.00 0.00 0.00 90 1011.8
20260503042841 59 220 4.3 7.0 0.00 0.00 0.00 91 1011.8
20260503042334 59 212 3.5 7.0 0.00 0.00 0.00 90 1011.4
20260503041826 59 195 2.6 5.2 0.00 0.00 0.00 90 1011.4
20260503041320 59 197 1.7 7.0 0.00 0.00 0.00 91 1011.4
20260503040812 59 198 3.5 7.0 0.00 0.00 0.00 90 1011.1
20260503040304 59 253 0.9 7.0 0.00 0.00 0.00 90 1011.1
20260503035758 59 256 2.6 7.0 0.00 0.00 0.00 90 1011.1
20260503034743 59 246 0.9 7.0 0.00 0.00 0.00 90 1011.1
20260503034236 59 273 3.5 7.0 0.00 0.00 0.00 90 1010.7
20260503033221 59 229 1.7 5.2 0.00 0.00 0.00 90 1010.7
20260503032714 59 223 1.7 6.1 0.00 0.00 0.00 90 1010.7
20260503032207 59 208 4.3 6.1 0.00 0.00 0.00 90 1010.4
20260503031659 59 259 0.9 7.8 0.00 0.00 0.00 90 1010.4
20260503031152 59 233 4.3 7.8 0.00 0.00 0.00 89 1010.4
20260503030644 59 268 1.7 6.1 0.00 0.00 0.00 89 1010.4
20260503030137 59 286 1.7 6.1 0.00 0.00 0.00 89 1010.1
20260503025631 59 266 1.7 6.1 0.00 0.00 0.00 89 1010.1
20260503024109 59 316 5.2 7.0 0.00 0.00 0.00 88 1010.1
20260503023601 59 248 4.3 7.8 0.00 0.00 0.00 88 1010.1
20260503022546 59 225 3.5 7.8 0.00 0.00 0.00 88 1010.1
20260503021532 60 261 4.3 7.8 0.00 0.00 0.00 87 1009.7
20260503021025 60 271 3.5 7.0 0.00 0.00 0.00 87 1009.7